Location: Seven Kings
(51.5667°N, 0.1000°E)
Time: 10:13:27
(UTC+00:00)

IRS-1A Rocket - Pass Details

Date: 29 October 2020
Orbit: 851 x 931 km, 99.2° (Epoch: 25 November)

Event Time Altitude Azimuth Distance (km) Brightness Sun altitude
Exits shadow 19:53:43 67° 306° (NW) 933 4.4 -30.8°
Drops below altitude 10° 19:58:38 10° 341° (NNW) 2,497 7.0 -31.5°
Sets 20:01:01 0° 343° (NNW) 3,434 7.8 -31.9°
